Stündliche Wetter Barra

Heute, 27 Oktober, Dienstag

Zeit Temperatur Niederschläge Wind Luftdruck Luftfeuchtigkeit
00:00 +26°C° 0.2 mm 1 m/S 723 mmHg 81%
01:00 +26°C° 0.3 mm 1 m/S 722 mmHg 82%
02:00 +26°C° 0.3 mm 1 m/S 722 mmHg 83%
03:00 +25°C° 0.3 mm 1 m/S 722 mmHg 85%
04:00 +25°C° 1.5 mm 1 m/S 722 mmHg 84%
05:00 +25°C° 1.5 mm 1 m/S 722 mmHg 84%
06:00 +25°C° 1.5 mm 1 m/S 722 mmHg 84%
07:00 +26°C° 0.9 mm 1 m/S 723 mmHg 82%
08:00 +26°C° 0.9 mm 1 m/S 723 mmHg 81%
09:00 +27°C° 0.9 mm 1 m/S 723 mmHg 79%
10:00 +29°C° 0.1 mm 2 m/S 723 mmHg 67%
11:00 +32°C° 0.1 mm 2 m/S 723 mmHg 56%
12:00 +35°C° 0.1 mm 2 m/S 723 mmHg 44%
13:00 +35°C° 0 mm 2 m/S 722 mmHg 46%
14:00 +35°C° 0 mm 2 m/S 721 mmHg 47%
15:00 +34°C° 0 mm 2 m/S 721 mmHg 48%
16:00 +33°C° 0.6 mm 3 m/S 721 mmHg 56%
17:00 +30°C° 0.6 mm 3 m/S 721 mmHg 64%
18:00 +28°C° 0.6 mm 4 m/S 721 mmHg 73%
19:00 +28°C° 0.6 mm 3 m/S 721 mmHg 75%
20:00 +27°C° 0.6 mm 3 m/S 722 mmHg 77%
21:00 +26°C° 0.6 mm 2 m/S 722 mmHg 80%
22:00 +26°C° 0.1 mm 2 m/S 722 mmHg 81%
23:00 +26°C° 0.1 mm 1 m/S 722 mmHg 82%

Morgen, 28 Oktober, Mittwoch

Zeit Temperatur Niederschläge Wind Luftdruck Luftfeuchtigkeit
00:00 +23°C° 0.1 mm 0 m/S 721 mmHg 83%
01:00 +23°C° 0 mm 0 m/S 721 mmHg 83%
02:00 +25°C° 0 mm 1 m/S 721 mmHg 83%
03:00 +25°C° 0 mm 1 m/S 721 mmHg 83%
04:00 +25°C° 0.1 mm 1 m/S 721 mmHg 82%
05:00 +25°C° 0.1 mm 1 m/S 722 mmHg 82%
06:00 +25°C° 0.1 mm 2 m/S 722 mmHg 81%
07:00 +27°C° 0 mm 1 m/S 723 mmHg 74%
08:00 +29°C° 0 mm 1 m/S 723 mmHg 67%
09:00 +31°C° 0 mm 1 m/S 724 mmHg 59%
10:00 +32°C° 0 mm 1 m/S 723 mmHg 52%
11:00 +34°C° 0 mm 1 m/S 723 mmHg 46%
12:00 +37°C° 0 mm 2 m/S 722 mmHg 39%
13:00 +37°C° 0 mm 2 m/S 722 mmHg 40%
14:00 +36°C° 0 mm 2 m/S 721 mmHg 41%
15:00 +36°C° 0 mm 2 m/S 721 mmHg 41%
16:00 +32°C° 0.8 mm 2 m/S 721 mmHg 51%
17:00 +30°C° 0.8 mm 2 m/S 721 mmHg 62%
18:00 +28°C° 0.8 mm 3 m/S 721 mmHg 72%
19:00 +28°C° 1.1 mm 3 m/S 722 mmHg 75%
20:00 +27°C° 1.1 mm 4 m/S 722 mmHg 79%
21:00 +26°C° 1.1 mm 5 m/S 723 mmHg 82%
22:00 +26°C° 0 mm 4 m/S 723 mmHg 82%
23:00 +26°C° 0 mm 3 m/S 722 mmHg 82%

übermorgen, 29 Oktober, Donnerstag

Zeit Temperatur Niederschläge Wind Luftdruck Luftfeuchtigkeit
00:00 +26°C° 0 mm 2 m/S 722 mmHg 82%
01:00 +26°C° 0 mm 1 m/S 722 mmHg 83%
02:00 +26°C° 0 mm 1 m/S 722 mmHg 83%
03:00 +26°C° 0 mm 1 m/S 722 mmHg 83%
04:00 +26°C° 0.2 mm 1 m/S 723 mmHg 83%
05:00 +26°C° 0.2 mm 2 m/S 723 mmHg 83%
06:00 +26°C° 0.2 mm 2 m/S 724 mmHg 82%
07:00 +27°C° 0.1 mm 3 m/S 724 mmHg 76%
08:00 +29°C° 0.1 mm 3 m/S 724 mmHg 69%
09:00 +30°C° 0.1 mm 4 m/S 725 mmHg 63%
10:00 +32°C° 0 mm 4 m/S 724 mmHg 58%
11:00 +33°C° 0 mm 4 m/S 724 mmHg 53%
12:00 +34°C° 0 mm 4 m/S 723 mmHg 48%
13:00 +35°C° 0 mm 4 m/S 723 mmHg 46%
14:00 +35°C° 0 mm 3 m/S 722 mmHg 45%
15:00 +36°C° 0 mm 3 m/S 722 mmHg 44%
16:00 +34°C° 0.1 mm 3 m/S 722 mmHg 47%
17:00 +33°C° 0.1 mm 3 m/S 722 mmHg 50%
18:00 +31°C° 0.1 mm 3 m/S 723 mmHg 54%
19:00 +30°C° 0.6 mm 3 m/S 723 mmHg 62%
20:00 +28°C° 0.6 mm 4 m/S 723 mmHg 70%
21:00 +27°C° 0.6 mm 4 m/S 723 mmHg 78%
22:00 +26°C° 0 mm 3 m/S 723 mmHg 78%
23:00 +26°C° 0 mm 2 m/S 723 mmHg 78%

30 Oktober, Freitag

Zeit Temperatur Niederschläge Wind Luftdruck Luftfeuchtigkeit
00:00 +26°C° 0 mm 1 m/S 722 mmHg 79%
01:00 +26°C° 0 mm 1 m/S 722 mmHg 79%
02:00 +26°C° 0 mm 2 m/S 722 mmHg 79%
03:00 +26°C° 0 mm 2 m/S 722 mmHg 79%
04:00 +26°C° 0 mm 3 m/S 722 mmHg 78%
05:00 +26°C° 0 mm 4 m/S 723 mmHg 78%
06:00 +26°C° 0 mm 4 m/S 723 mmHg 77%
07:00 +27°C° 0 mm 5 m/S 724 mmHg 68%
08:00 +29°C° 0 mm 5 m/S 725 mmHg 59%
09:00 +32°C° 0 mm 5 m/S 725 mmHg 50%
10:00 +33°C° 0 mm 5 m/S 725 mmHg 48%
11:00 +34°C° 0 mm 5 m/S 724 mmHg 46%
12:00 +34°C° 0 mm 5 m/S 724 mmHg 44%
13:00 +34°C° 0 mm 4 m/S 723 mmHg 45%
14:00 +34°C° 0 mm 4 m/S 723 mmHg 45%
15:00 +33°C° 0 mm 3 m/S 722 mmHg 46%
16:00 +31°C° 0 mm 2 m/S 722 mmHg 48%
17:00 +31°C° 0 mm 2 m/S 722 mmHg 51%
18:00 +30°C° 0 mm 1 m/S 722 mmHg 53%
19:00 +29°C° 0 mm 1 m/S 723 mmHg 54%
20:00 +29°C° 0 mm 1 m/S 723 mmHg 55%
21:00 +29°C° 0 mm 2 m/S 724 mmHg 56%
22:00 +28°C° 0 mm 2 m/S 723 mmHg 59%
23:00 +28°C° 0 mm 2 m/S 723 mmHg 61%

31 Oktober, Samstag

Zeit Temperatur Niederschläge Wind Luftdruck Luftfeuchtigkeit
00:00 +27°C° 0 mm 2 m/S 723 mmHg 63%
01:00 +27°C° 0 mm 1 m/S 723 mmHg 66%
02:00 +27°C° 0 mm 1 m/S 723 mmHg 68%
03:00 +26°C° 0 mm 1 m/S 722 mmHg 70%
04:00 +26°C° 0 mm 2 m/S 723 mmHg 71%
05:00 +26°C° 0 mm 3 m/S 723 mmHg 71%
06:00 +26°C° 0 mm 3 m/S 724 mmHg 72%
07:00 +28°C° 0 mm 3 m/S 724 mmHg 65%
08:00 +30°C° 0 mm 4 m/S 725 mmHg 58%
09:00 +33°C° 0 mm 4 m/S 725 mmHg 52%
10:00 +34°C° 0 mm 4 m/S 725 mmHg 48%
11:00 +35°C° 0 mm 4 m/S 724 mmHg 44%
12:00 +35°C° 0 mm 4 m/S 724 mmHg 41%
13:00 +36°C° 0 mm 3 m/S 723 mmHg 39%
14:00 +36°C° 0 mm 3 m/S 722 mmHg 38%
15:00 +36°C° 0 mm 2 m/S 722 mmHg 36%
16:00 +35°C° 0 mm 2 m/S 722 mmHg 39%
17:00 +34°C° 0 mm 2 m/S 722 mmHg 41%
18:00 +32°C° 0 mm 2 m/S 722 mmHg 44%
19:00 +31°C° 0 mm 2 m/S 722 mmHg 47%
20:00 +30°C° 0 mm 2 m/S 723 mmHg 51%
21:00 +29°C° 0 mm 2 m/S 723 mmHg 54%
22:00 +29°C° 0 mm 1 m/S 723 mmHg 56%
23:00 +28°C° 0 mm 1 m/S 723 mmHg 58%

1 November, Sonntag

Zeit Temperatur Niederschläge Wind Luftdruck Luftfeuchtigkeit
00:00 +26°C° 0 mm 0 m/S 723 mmHg 60%
01:00 +27°C° 0 mm 1 m/S 722 mmHg 62%
02:00 +27°C° 0 mm 1 m/S 722 mmHg 64%
03:00 +26°C° 0 mm 2 m/S 722 mmHg 66%
04:00 +26°C° 0 mm 2 m/S 722 mmHg 68%
05:00 +26°C° 0 mm 1 m/S 723 mmHg 71%
06:00 +26°C° 0 mm 1 m/S 723 mmHg 73%
07:00 +28°C° 0 mm 2 m/S 723 mmHg 64%
08:00 +31°C° 0 mm 2 m/S 724 mmHg 55%
09:00 +34°C° 0 mm 3 m/S 724 mmHg 46%
10:00 +35°C° 0 mm 3 m/S 724 mmHg 43%
11:00 +36°C° 0 mm 3 m/S 723 mmHg 40%
12:00 +37°C° 0 mm 3 m/S 723 mmHg 37%
13:00 +36°C° 0 mm 3 m/S 722 mmHg 38%
14:00 +36°C° 0 mm 3 m/S 721 mmHg 38%
15:00 +35°C° 0 mm 2 m/S 721 mmHg 39%
16:00 +34°C° 0.1 mm 2 m/S 721 mmHg 42%
17:00 +32°C° 0.1 mm 1 m/S 721 mmHg 44%
18:00 +31°C° 0.1 mm 1 m/S 721 mmHg 47%
19:00 +30°C° 0.4 mm 2 m/S 722 mmHg 55%
20:00 +29°C° 0.4 mm 3 m/S 722 mmHg 64%
21:00 +27°C° 0.4 mm 4 m/S 723 mmHg 72%
22:00 +27°C° 0.8 mm 4 m/S 723 mmHg 75%
23:00 +26°C° 0.8 mm 4 m/S 723 mmHg 78%
Mehr zeigen